Location: Brantley
(31.5822°N, 86.2569°W)
Time: 05:22:24
(UTC+00:00)

Hubble Space Telescope - Visible Passes

Search period start: 18 January 2026 00:00
Search period end: 28 January 2026 00:00
Orbit: 479 x 481 km, 28.5° (Epoch: 17 January)

Date Brightness Start Highest point End Pass type
(mag) Time Alt. Az. Time Alt. Az. Time Alt. Az.
21 Jan 2.9 01:04:20 10° SSW 01:05:42 16° S 01:05:42 16° S visible
22 Jan 2.4 00:34:33 10° SSW 00:37:16 19° SSE 00:37:44 18° SSE visible
23 Jan 2.5 00:04:46 10° SSW 00:07:29 19° SSE 00:09:44 12° ESE visible
23 Jan 3.6 01:43:22 10° WSW 01:43:52 13° WSW 01:43:52 13° WSW visible
23 Jan 2.5 23:34:57 10° SSW 23:37:42 19° SSE 23:40:27 10° ESE visible
24 Jan 2.2 01:13:35 10° WSW 01:15:49 30° SW 01:15:49 30° SW visible
25 Jan 1.1 00:43:47 10° WSW 00:47:22 43° S 00:47:45 42° SSE visible
26 Jan 1.3 00:13:58 10° WSW 00:17:34 44° S 00:19:40 21° ESE visible
26 Jan 3.9 01:53:33 10° W 01:53:48 12° W 01:53:48 12° W visible
26 Jan 1.3 23:44:08 10° WSW 23:47:44 44° S 23:51:21 10° E visible
27 Jan 2.5 01:23:43 10° W 01:25:43 28° WSW 01:25:43 28° WSW visible
